Regional Weather Roundup
Issued by NWS Goodland, KS

Home | Current Version | Previous Version | Text Only | Print | Product List | Glossary Off
Versions: 1 2 3 4 5 6 7 8 9 10 11 12 13 14 15 16 17 18 19 20 21 22 23 24 25 26 27 28 29 30 31 32 33 34 35 36 37 38 39 40 41 42 43 44 45 46 47 48 49 50

272
ASUS43 KGLD 190808
RWRGLD

GOODLAND FORECAST AREA HOURLY WEATHER ROUNDUP
NATIONAL WEATHER SERVICE GOODLAND KS
200 AM MDT TUE SEP 19 2017

...OFFICIAL OBSERVATIONS...

CITY           SKY/WX    TMP DP  RH WIND       PRES   REMARKS
GOODLAND KS    CLEAR     59  55  87 S10       29.81F
HILL CITY KS   CLEAR     67  63  87 S6        29.82F
IMPERIAL NEB   CLEAR     59  54  83 SE10      29.78F
MCCOOK NEB     CLEAR     60  58  92 SE6       29.78F
AKRON CO       CLEAR     59  44  57 S16       29.79F
BURLINGTON CO  CLEAR     61  55  81 S15       29.81F
LIMON CO         N/A    N/A N/A N/A MISG      29.86F
$$

...UNOFFICIAL OBSERVATIONS...

CITY           SKY/WX    TMP DP  RH WIND       PRES   REMARKS
LENORA KS        N/A     65  32  29 MISG        N/A
NORTON KS      CLEAR     64  55  72 SE7       29.80F
SHARON SPRINGS   N/A     64  62  92 SE12        N/A
TRIBUNE KS     CLEAR     66  64  94 S9G17     29.85
TRENTON NEB      N/A     61  32  33 S6          N/A
KIT CARSON CO    N/A     60  52  76 MISG        N/A
YUMA CO        FAIR      50  34  53 S3        29.78F
$$




USA.gov is the U.S. government's official web portal to all federal, state and local government web resources and services.